Location: Worth Mountain WMA
(34.9569°N, 81.4819°W)
Time: 12:38:06
(UTC-04:00)

Daily predictions for brighter satellites

Satellite Brightness Start Highest point End
(mag) Time Altitude Azimuth Time Altitude Azimuth Time Altitude Azimuth
Cosmos 1709 Rocket 4.3 20:47:59 10° N 20:54:05 51° E 21:00:03 10° SSE
Envisat 3.8 20:50:38 10° SE 20:55:10 34° ENE 20:59:43 10° N
Cosmos 44 4.2 20:51:51 10° NW 20:55:56 42° WSW 21:00:04 10° S
Iridium 4 Rocket 3.7 20:51:54 10° N 20:56:51 54° E 21:02:13 10° SSE
ASTRO E2 3.0 20:54:56 10° WSW 20:58:48 49° S 21:02:40 10° E
H-2A R/B 3.9 21:04:16 10° S 21:07:49 42° W 21:11:21 10° NNW
Tiangong 2 1.6 21:05:30 10° SW 21:08:28 38° SSE 21:11:27 10° ENE
Cosmos 1975 Rocket 4.0 21:04:55 10° SSW 21:09:17 53° W 21:13:40 10° N
Aureole 1 Rocket 4.2 21:08:16 10° SE 21:10:14 14° ESE 21:12:03 10° ENE
NOSS 2-2 (E) 3.3 21:07:12 10° SSW 21:11:07 65° ESE 21:15:26 10° NE
Cosmos 1538 Rocket 4.2 21:11:41 10° SSW 21:16:49 76° WNW 21:22:00 10° NNE
ISS -2.8 21:17:55 10° S 21:20:42 25° SE 21:23:29 10° ENE
USA 186 2.1 21:18:08 10° S 21:21:22 66° W 21:24:33 10° NNW
CZ-4B DEB 4.5 21:21:07 10° SSE 21:24:36 68° ENE 21:28:07 10° N
Cosmos 2315 Rocket 4.2 21:18:46 10° S 21:25:00 77° W 21:31:21 10° N
Cosmos 1666 4.3 21:22:43 10° NNE 21:25:25 19° ENE 21:26:55 15° ESE
Cosmos 923 Rocket 4.1 21:20:15 10° S 21:25:25 54° ESE 21:30:36 10° NNE
OAO 2 Rocket 3.2 21:20:33 10° WSW 21:25:28 73° SSE 21:30:28 10° E
Cosmos 1536 Rocket 3.4 21:26:36 10° S 21:30:55 76° E 21:35:14 10° N
CZ-3A R/B 2.5 21:24:56 10° SSW 21:31:07 28° SE 21:33:08 15° E
Cosmos 1437 2.6 21:29:55 10° S 21:33:07 81° E 21:36:20 10° N
CZ-4B DEB 2.7 21:31:49 19° SSE 21:33:47 56° ENE 21:36:44 10° N
Helios 1A 2.9 21:29:37 10° SSE 21:33:51 84° ENE 21:38:05 10° N
Cosmos 2184 Rocket 4.5 21:28:09 10° N 21:34:10 43° E 21:38:55 16° SE
Cosmos 2074 Rocket 4.4 21:28:25 10° N 21:34:24 45° E 21:39:14 15° SSE
Meteor 1-19 Rocket 4.3 21:33:35 10° S 21:39:19 63° E 21:45:01 10° NNE
SJ-11-01 4.2 21:36:38 12° SSE 21:40:57 82° ENE 21:45:40 10° N
Meteor 1-29 3.0 21:38:26 10° N 21:41:49 78° WNW 21:45:09 10° SSW
YAOGAN 6 2.8 21:42:06 24° SE 21:43:53 47° ENE 21:47:16 10° N
SAR-Lupe-4 3.5 21:41:16 16° SSE 21:44:05 86° WSW 21:47:41 10° NNW
ERS-1 Rocket 3.5 21:41:29 20° SE 21:44:37 42° ENE 21:49:20 10° N
Cosmos 1656 Rocket 3.8 21:41:01 10° NNW 21:46:23 55° ENE 21:49:49 22° SE
Cosmos 2369 Rocket 3.9 21:42:24 10° NW 21:47:14 29° WSW 21:52:03 10° SSW
Cosmos 405 Rocket 2.5 21:46:23 10° S 21:50:05 87° E 21:53:54 10° N
Cosmos 1544 Rocket 4.5 21:47:21 10° NNW 21:51:29 46° W 21:55:37 10° SSW
Resurs 01 Rocket 4.0 21:49:31 10° SW 21:52:54 21° W 21:56:17 10° NW
NOSS 2-2 (D) 4.4 21:50:20 10° SW 21:54:10 49° NW 21:58:25 10° NNE
H-2A R/B 3.7 21:52:51 15° E 21:54:24 17° ENE 21:57:33 10° NNE
Cosmos 2112 Rocket 3.9 21:53:01 10° S 21:58:13 72° ESE 22:03:25 10° NNE
Cosmos 192 4.4 21:54:12 10° S 21:58:56 57° ESE 22:03:45 10° NNE
Cosmos 1975 4.1 21:55:37 10° NNW 21:59:25 39° W 22:03:13 10° SSW
Cosmos 1025 Rocket 3.5 21:58:34 30° SE 21:59:55 40° E 22:03:55 10° NNE
Cosmos 1943 Rocket 3.2 21:57:09 10° NW 22:02:23 42° WSW 22:07:20 11° S
Cosmos 1441 Rocket 3.1 22:01:18 31° SSE 22:02:51 60° E 22:06:32 10° NNE
CENTAUR R/B 3.2 21:55:46 10° NNW 22:03:51 77° ENE 22:09:18 25° SE
Nadezhda 1 Rocket 4.0 21:59:51 12° S 22:05:50 73° E 22:12:13 10° N
NOAA 11 4.3 22:07:47 29° SE 22:10:31 61° ENE 22:15:52 10° N
Cosmos 1939 Rocket 4.0 22:08:04 14° SSW 22:11:00 38° W 22:14:38 10° NNW
COSMOS 2406 3.8 22:09:04 10° SSW 22:14:43 60° WNW 22:20:23 10° NNE
SL-08 RB Rocket 4.5 22:14:43 31° E 22:15:31 34° ENE 22:19:33 10° N
ARGOS 3.5 22:13:33 32° SE 22:15:35 48° ENE 22:20:47 10° N
SL-27 R/B 2.6 22:14:28 24° SSW 22:16:35 79° WNW 22:20:15 10° NNE
Cosmos 2154 Rocket 4.3 22:11:39 10° N 22:17:50 52° E 22:20:26 33° SE
COSMOS 2455 3.7 22:12:43 10° NW 22:18:22 43° WSW 22:22:27 18° S
Cosmos 374 Rocket 4.2 22:15:51 10° NNW 22:19:36 80° ENE 22:20:28 53° SE
Cosmos 1680 Rocket 4.1 22:16:43 10° SSW 22:21:51 56° WNW 22:26:59 10° N
SPOT 5 2.8 22:23:05 45° ESE 22:23:49 51° ENE 22:28:00 10° N
H-2A R/B 4.1 22:24:49 16° ENE 22:24:57 16° ENE 22:27:38 10° NNE
Cosmos 2082 Rocket 3.6 22:28:03 21° E 22:28:03 21° E 22:31:04 10° NE
Cosmos 2056 Rocket 4.4 22:23:40 10° N 22:28:18 32° ENE 22:29:09 30° E
Cosmos 1743 4.2 22:27:05 10° NNW 22:30:36 33° W 22:32:37 20° SW
Cosmos 405 2.9 22:31:29 10° N 22:34:56 83° NNW 22:34:56 83° NNW
Terra 3.3 22:37:12 23° ENE 22:37:17 23° ENE 22:40:58 10° NNE
ASTRO E2 3.7 22:35:21 10° W 22:38:11 35° SW 22:38:11 35° SW
ASTEX 1 4.1 22:36:30 23° SSW 22:39:16 48° W 22:44:01 10° NNW
MetOp-B 4.2 22:40:01 40° S 22:42:00 74° WSW 22:47:22 10° NNW
Cosmos 967 Rocket 4.3 22:38:24 23° SSW 22:42:29 70° ESE 22:48:43 10° NNE
Meteor 2-19 Rocket 4.5 22:36:45 10° N 22:42:49 62° E 22:44:22 47° SE
SPOT 1/Viking Rocket 3.6 22:44:16 54° ESE 22:45:09 64° ENE 22:50:16 10° N
Tiangong 2 2.7 22:42:17 10° W 22:45:14 34° NNW 22:45:36 33° N
Cosmos 2341 Rocket 4.1 22:39:39 10° N 22:45:58 64° E 22:47:39 47° SE
Cosmos 1437 Rocket 3.0 22:46:08 10° N 22:49:25 62° NNE 22:49:25 62° NNE
Okean 2 3.7 22:50:04 53° WSW 22:50:40 60° W 22:54:42 10° N
Cosmos 1697 Rocket 4.4 22:51:42 10° NNE 22:55:31 18° ENE 22:56:25 18° ENE
ISS -1.5 22:54:19 10° W 22:57:08 26° NW 22:59:58 10° NNE
Cosmos 1892 Rocket 3.5 23:01:37 80° WNW 23:01:37 80° WNW 23:06:03 10° N
Cosmos 2218 Rocket 4.4 22:56:27 10° N 23:02:15 42° E 23:02:38 41° E
DNEPR-1 R/B 4.1 23:00:26 10° NW 23:04:37 50° WSW 23:04:38 50° WSW
Cosmos 1371 Rocket 3.9 23:02:19 10° NNW 23:07:39 77° WSW 23:08:06 71° SSW
Cosmos 2228 3.8 23:03:40 10° N 23:06:54 43° NNE 23:06:54 43° NNE
OAO 2 Rocket 3.2 23:05:16 10° W 23:10:01 81° W 23:10:01 81° W
Cosmos 1833 Rocket 3.1 23:11:23 47° ENE 23:11:23 47° ENE 23:15:52 10° NNE
Cosmos 921 Rocket 3.6 23:09:16 10° N 23:12:53 51° NNE 23:12:53 51° NNE
Cosmos 1066 Rocket 4.1 23:15:05 69° E 23:15:05 69° E 23:20:26 10° NNE
Cosmos 2181 Rocket 4.1 23:13:08 45° SSW 23:15:13 74° W 23:21:34 10° N
Cosmos 1656 4.4 23:11:15 10° N 23:16:17 37° ENE 23:16:17 37° ENE
Cosmos 1606 Rocket 4.3 23:14:58 10° NNW 23:18:50 47° W 23:18:50 47° W
SL-19 R/B 4.1 23:17:53 10° NNE 23:22:49 72° NE 23:22:49 72° NE
CZ-4 R/B 4.5 23:22:39 10° NNE 23:26:31 50° NE 23:26:31 50° NE
Cosmos 1809 Rocket 4.4 23:26:55 10° N 23:32:56 70° ENE 23:32:56 70° ENE
H-2A R/B 2.6 23:33:29 45° W 23:33:29 45° W 23:38:11 10° NNW
USA 267 3.1 23:27:04 10° NE 23:33:37 74° SE 23:34:02 71° SSE
Cosmos 2058 Rocket 4.0 23:32:25 10° NNW 23:35:51 44° NW 23:35:51 44° NW
Cosmos 1980 Rocket 3.6 23:37:51 10° N 23:42:26 26° ENE 23:42:26 26° ENE
SeaSat 1 4.5 23:46:40 18° NE 23:46:40 18° NE 23:49:54 10° NNE
Cosmos 864 Rocket 4.4 23:45:23 10° N 23:51:34 86° NNW 23:51:34 86° NNW
